User: anonymous   Login
Location: *
(51.5000°N, 0.1100°W)
Time: 07:48:05
(UTC+00:00)
Language:

Cosmos 2219 Rocket - Orbit

View from above orbital plane
View from above orbital plane
View from above satellite
View from above satellite

Ground track
Ground track

The orbit data is extracted from the following two-line orbital elements,

1 22220U 92076B   24201.90688216 -.00000097  00000-0 -24565-4 0  9995
2 22220  71.0012   7.4430 0015038 283.9580 184.4372 14.16672773637493
Epoch (UTC): 19 July 2024 21:45:54
Eccentricity: 0.0015038
inclination: 71.0012°
perigee height: 826 km
apogee height: 847 km
right ascension of ascending node: 7.4430°
argument of perigee: 283.9580°
revolutions per day: 14.16672773
mean anomaly at epoch: 184.4372°
orbit number at epoch: 63749

The dashed part of the orbit path shows where the satellite is in the earth's shadow,  

DLR